Date,TemperatureHighF,TemperatureAvgF,TemperatureLowF,DewpointHighF,DewpointAvgF,DewpointLowF,HumidityHigh,HumidityAvg,HumidityLow,PressureMaxIn,PressureMinIn,WindSpeedMaxMPH,WindSpeedAvgMPH,GustSpeedMaxMPH,PrecipitationSumIn
2013-1-1,29.3,21.8,9.5,8.5,2.6,-8.1,44,43,41,29.83,29.56,10,2,15,0.00
2013-1-2,18.5,9.8,1.0,-0.3,-7.8,-15.8,44,44,43,29.98,29.77,7,2,12,0.00
2013-1-3,17.4,8.5,-0.2,-0.8,-9.0,-17.0,44,44,44,30.03,29.92,6,2,11,0.00
2013-1-4,30.2,19.7,5.7,9.3,0.4,-11.5,44,42,41,29.92,29.68,6,0,8,0.00
2013-1-5,31.5,25.4,14.5,9.9,5.3,-3.5,44,42,40,30.27,29.68,10,2,15,0.00
2013-1-6,30.7,24.2,13.3,9.8,4.4,-4.6,44,42,41,30.21,29.92,3,0,5,0.00
2013-1-7,27.7,20.6,12.9,7.9,1.6,-4.9,44,43,42,30.39,29.92,6,1,8,0.00
2013-1-8,37.9,30.3,19.4,15.1,9.3,0.5,43,41,39,30.33,30.15,6,1,8,0.00
2013-1-9,37.8,26.9,19.2,15.0,6.8,0.8,44,42,39,30.39,30.15,4,0,6,0.00
2013-1-17,69.8,50.1,13.5,40.4,25.9,-4.4,44,39,34,30.12,29.80,8,1,10,0.00
2013-1-18,12.9,9.1,4.6,-4.9,-8.4,-12.5,44,44,44,30.39,30.07,0,0,0,0.04
2013-1-19,33.6,32.0,29.3,18.9,15.6,10.6,59,51,45,30.12,29.89,4,1,6,0.04
2013-1-20,46.6,37.0,22.8,31.4,18.1,3.1,71,47,37,29.86,29.44,7,2,12,0.00
2013-1-21,22.8,18.3,11.8,2.5,-0.4,-5.9,44,43,42,30.03,29.80,8,2,17,0.00
2013-1-22,18.9,12.0,6.1,0.5,-5.8,-11.2,44,44,44,29.98,29.71,13,2,13,0.00
2013-1-23,6.6,1.6,-2.4,-11.2,-15.3,-19.0,44,44,44,30.07,29.95,8,4,14,0.00
2013-1-24,12.6,6.6,0.3,-5.3,-10.7,-16.5,44,44,44,30.03,29.89,8,4,14,0.00
2013-1-25,18.3,8.7,-0.4,-0.5,-8.9,-17.2,44,44,43,30.15,30.03,8,2,8,0.00
2013-1-26,19.4,13.1,6.3,0.5,-4.8,-11.0,44,44,43,30.07,29.95,9,2,12,0.00
2013-1-27,21.4,12.8,6.1,2.2,-5.1,-11.2,44,44,42,30.36,30.07,8,3,13,0.00
2013-1-28,29.5,18.3,5.9,8.6,-0.6,-11.4,44,43,41,30.39,30.07,5,1,6,0.00
2013-1-29,33.6,21.0,13.3,12.9,2.2,-4.1,45,44,42,30.18,30.03,3,0,5,0.00
2013-1-31,53.8,52.8,52.0,50.6,49.6,48.8,89,89,89,29.06,29.00,15,11,30,0.04